Jaipur, India

7:21 PM IST on April 30, 2017 (GMT +0530)
Jaipur

Weather History for VIJP - February, 2014

Change the Weather History Date:

Monday, February 24, 2014

  Actual Average Record
Temperature  
Mean Temperature 64 °F -  
Max Temperature 75 °F - - ()
Min Temperature 53 °F - - ()
Degree Days  
Heating Degree Days 1    
Growing Degree Days 14 (Base 50)    
Moisture  
Dew Point 51 °F    
Average Humidity 63    
Maximum Humidity 94    
Minimum Humidity 27    
Precipitation  
Precipitation 0.00 in - - ()
Sea Level Pressure  
Sea Level Pressure 30.09 in    
Wind  
Wind Speed 2 mph ()    
Max Wind Speed 7 mph    
Max Gust Speed -    
Visibility 1.5 miles    
Events      
T = Trace of Precipitation, MM = Missing Value Source: Averaged Metar Reports

Daily Weather History Graph

Daily Weather History Graph

Search for Another Location

Airport or City:

Trip Planner

Search our weather history database for the weather conditions in past years. The results will help you decide how hot, cold, wet, or windy it might be!

Date:

Astronomy

Feb. 24, 2014 Rise Set
Actual Time 6:55 AM IST 6:24 PM IST
Civil Twilight 6:32 AM IST 6:48 PM IST
Nautical Twilight 6:05 AM IST 7:15 PM IST
Astronomical Twilight 5:38 AM IST 7:42 PM IST
Moon 2:10 AM IST (2/24) 1:14 PM IST (2/24)
Length of Visible Light 12h 15m
Length of Day
11h 28m
Waning Crescent, 33% of the Moon is Illuminated
Feb 24
Waning Crescent
Mar 1
New
Mar 8
First Quarter
Mar 16
Full
Mar 24
Last Quarter

Hourly Weather History & Observations

Time (IST) Temp. Dew Point Humidity Pressure Visibility Wind Dir Wind Speed Gust Speed Precip Events Conditions
12:00 AM 60.8 °F 59.0 °F 94% 30.12 in 1.2 mi Calm Calm - N/A   Scattered Clouds
1:00 AM 60.8 °F 53.6 °F 77% 30.12 in 1.2 mi Calm Calm - N/A   Scattered Clouds
2:00 AM 60.8 °F 53.6 °F 77% 30.12 in 1.2 mi Calm Calm - N/A   Scattered Clouds
2:30 AM 59.0 °F 51.8 °F 77% 30.12 in 1.2 mi Variable 1.2 mph - N/A   Scattered Clouds
3:00 AM 59.0 °F 50.0 °F 72% 30.09 in 1.2 mi NE 4.6 mph - N/A   Scattered Clouds
4:00 AM 57.2 °F 51.8 °F 82% 30.09 in 1.2 mi Variable 2.3 mph - N/A   Scattered Clouds
5:00 AM 57.2 °F 51.8 °F 82% 30.09 in 1.2 mi Calm Calm - N/A   Scattered Clouds
5:30 AM 56 °F 51 °F 79% 30.09 in 1 mi Calm Calm - -   Mist
6:00 AM 57.2 °F 51.8 °F 82% 30.09 in 1.2 mi Variable 2.3 mph - N/A   Scattered Clouds
6:30 AM 55.4 °F 51.8 °F 88% 30.12 in 1.2 mi Variable 1.2 mph - N/A   Scattered Clouds
7:00 AM 55.4 °F 51.8 °F 88% 30.12 in 1.0 mi East 4.6 mph - N/A   Scattered Clouds
7:30 AM 55.4 °F 51.8 °F 88% 30.12 in 1.0 mi Variable 3.5 mph - N/A   Scattered Clouds
8:00 AM 57.2 °F 53.6 °F 88% 30.15 in 1.0 mi Variable 1.2 mph - N/A   Scattered Clouds
8:30 AM 59 °F 52 °F 69% 30.14 in 1 mi ENE 4.6 mph - -   Mist
9:00 AM 62.6 °F 51.8 °F 68% 30.18 in 1.2 mi East 6.9 mph - N/A   Haze
10:00 AM 66.2 °F 53.6 °F 64% 30.18 in 1.2 mi ESE 5.8 mph - N/A   Haze
11:00 AM 68.0 °F 51.8 °F 56% 30.21 in 1.2 mi South 5.8 mph - N/A   Haze
11:30 AM 70 °F 51 °F 40% 30.14 in 2 mi SE 4.6 mph - -   Haze
12:00 PM 69.8 °F 51.8 °F 53% 30.18 in 2.2 mi South 4.6 mph - N/A   Haze
1:00 PM 71.6 °F 50.0 °F 46% 30.12 in 2.5 mi South 5.8 mph - N/A   Haze
2:00 PM 71.6 °F 48.2 °F 43% 30.09 in 2.5 mi SSW 5.8 mph - N/A   Haze
2:30 PM 72 °F 46 °F 29% 30.04 in 2 mi SSW 5.8 mph - -   Haze
3:00 PM 75.2 °F 48.2 °F 38% 30.06 in 2.5 mi Variable 3.5 mph - N/A   Haze
4:00 PM 73.4 °F 48.2 °F 41% 30.06 in 2.5 mi South 6.9 mph - N/A   Haze
5:00 PM 73.4 °F 46.4 °F 38% 30.06 in 2.5 mi South 4.6 mph - N/A   Haze
5:30 PM 72 °F 45 °F 27% 30.01 in 2 mi South 4.6 mph - -   Haze
6:00 PM 71.6 °F 48.2 °F 43% 30.04 in 2.2 mi SE 5.8 mph - N/A   Haze
8:00 PM 66.2 °F 51.8 °F 60% 30.06 in 1.6 mi Variable 1.2 mph - N/A   Haze
8:30 PM 67 °F 50 °F 44% 29.74 in 1 mi SSE 3.5 mph - -   Haze
9:00 PM 66.2 °F 51.8 °F 60% 30.09 in 1.2 mi Variable 1.2 mph - N/A   Smoke
10:00 PM 64.4 °F 51.8 °F 64% 30.09 in 1.2 mi Calm Calm - N/A   Smoke
11:00 PM 64.4 °F 51.8 °F 64% 30.09 in 1.2 mi NE 3.5 mph - N/A   Smoke
11:30 PM 63 °F 52 °F 58% 30.05 in 1 mi ESE 4.6 mph - -   Haze